TimeMST,TemperatureF,Dew PointF,Humidity,Sea Level PressureIn,VisibilityMPH,Wind Direction,Wind SpeedMPH,Gust SpeedMPH,PrecipitationIn,Events,Conditions,WindDirDegrees,DateUTC
12:15 AM,-0.4,-4.0,85,30.53,10.0,North,4.6,-,N/A,,Clear,350,2013-01-16 07:15:00
12:35 AM,-0.4,-4.0,85,30.53,10.0,NW,5.8,-,N/A,,Clear,320,2013-01-16 07:35:00
12:55 AM,-0.4,-4.0,85,30.54,10.0,North,4.6,-,N/A,,Clear,10,2013-01-16 07:55:00
1:35 AM,-0.4,-5.8,78,30.54,10.0,North,5.8,-,N/A,,Clear,350,2013-01-16 08:35:00
2:15 AM,-2.2,-5.8,85,30.55,10.0,Calm,Calm,-,N/A,,Clear,0,2013-01-16 09:15:00
2:35 AM,-0.4,-5.8,78,30.55,10.0,North,4.6,-,N/A,,Clear,350,2013-01-16 09:35:00
2:55 AM,-2.2,-5.8,85,30.55,10.0,NNW,6.9,-,N/A,,Clear,340,2013-01-16 09:55:00
3:15 AM,-2.2,-5.8,85,30.55,10.0,NW,9.2,-,N/A,,Clear,320,2013-01-16 10:15:00
3:35 AM,-0.4,-4.0,85,30.55,10.0,NW,6.9,-,N/A,,Clear,320,2013-01-16 10:35:00
3:55 AM,-2.2,-5.8,85,30.55,10.0,NNE,4.6,-,N/A,,Clear,30,2013-01-16 10:55:00
4:15 AM,-2.2,-5.8,85,30.55,10.0,North,3.5,-,N/A,,Clear,350,2013-01-16 11:15:00
4:35 AM,-2.2,-5.8,85,30.55,10.0,North,5.8,-,N/A,,Clear,10,2013-01-16 11:35:00
5:15 AM,-4.0,-7.6,85,30.55,10.0,NNW,6.9,-,N/A,,Clear,340,2013-01-16 12:15:00
5:35 AM,-4.0,-7.6,85,30.55,10.0,North,4.6,-,N/A,,Clear,350,2013-01-16 12:35:00
5:55 AM,-4.0,-7.6,85,30.54,10.0,NNW,6.9,-,N/A,,Clear,330,2013-01-16 12:55:00
6:47 AM,-4.0,-7.6,85,30.55,10.0,NNW,5.8,-,N/A,,Clear,330,2013-01-16 13:47:00
7:47 AM,-5.8,-9.4,84,30.57,10.0,Calm,Calm,-,N/A,,Partly Cloudy,0,2013-01-16 14:47:00
8:50 AM,-5.8,-9.4,84,30.58,10.0,NNW,3.5,-,N/A,,Partly Cloudy,330,2013-01-16 15:50:00
9:52 AM,-0.4,-5.8,78,30.59,10.0,Calm,Calm,-,N/A,,Partly Cloudy,0,2013-01-16 16:52:00
10:49 AM,3.2,-0.4,85,30.58,10.0,NW,4.6,-,N/A,,Partly Cloudy,310,2013-01-16 17:49:00
11:47 AM,8.6,1.4,73,30.58,7.0,SE,5.8,-,N/A,,Scattered Clouds,130,2013-01-16 18:47:00
12:55 PM,12.2,6.8,79,30.55,10.0,SE,4.6,-,N/A,,Scattered Clouds,130,2013-01-16 19:55:00
1:47 PM,14.0,8.6,79,30.54,10.0,SE,3.5,-,N/A,,Scattered Clouds,130,2013-01-16 20:47:00
2:47 PM,15.8,8.6,73,30.53,10.0,SE,4.6,-,N/A,,Partly Cloudy,130,2013-01-16 21:47:00
3:47 PM,14.0,8.6,79,30.53,10.0,ESE,4.6,-,N/A,,Partly Cloudy,120,2013-01-16 22:47:00
4:47 PM,8.6,5.0,85,30.54,10.0,SE,4.6,-,N/A,,Clear,130,2013-01-16 23:47:00
5:47 PM,8.6,1.4,73,30.55,7.0,ESE,3.5,-,N/A,,Clear,120,2013-01-17 00:47:00
6:47 PM,8.6,5.0,85,30.56,10.0,Calm,Calm,-,N/A,,Clear,0,2013-01-17 01:47:00
7:47 PM,3.2,1.4,92,30.57,10.0,NW,6.9,-,N/A,,Clear,310,2013-01-17 02:47:00
8:47 PM,3.2,-0.4,85,30.57,10.0,NNW,4.6,-,N/A,,Clear,330,2013-01-17 03:47:00
9:50 PM,1.4,-2.2,85,30.57,10.0,NW,5.8,-,N/A,,Clear,310,2013-01-17 04:50:00
10:15 PM,1.4,-0.4,92,30.57,10.0,NNW,6.9,-,N/A,,Clear,330,2013-01-17 05:15:00
10:35 PM,3.2,-0.4,85,30.57,10.0,NNW,6.9,-,N/A,,Clear,330,2013-01-17 05:35:00
10:47 PM,-0.4,-2.2,92,30.57,10.0,NW,6.9,-,N/A,,Clear,320,2013-01-17 05:47:00
10:55 PM,1.4,-2.2,85,30.57,10.0,NNW,6.9,-,N/A,,Clear,340,2013-01-17 05:55:00
11:15 PM,3.2,-0.4,85,30.57,10.0,NW,8.1,-,N/A,,Clear,320,2013-01-17 06:15:00
11:35 PM,1.4,-2.2,85,30.57,10.0,NNW,8.1,-,N/A,,Clear,330,2013-01-17 06:35:00
11:55 PM,1.4,-4.0,78,30.56,10.0,NW,9.2,-,N/A,,Clear,320,2013-01-17 06:55:00